Location: Arbon
(43.0005°N, 0.7472°E)
Time: 22:14:48
(UTC+00:00)

Explorer 7 - Pass Details

Date: 28 November 2020
Orbit: 484 x 678 km, 50.3° (Epoch: 25 January)

Event Time Altitude Azimuth Distance (km) Brightness Sun altitude
Rises 06:10:58 0° 297° (WNW) 2,774 - -9.9°
Reaches altitude 10° 06:13:26 10° 306° (NW) 1,840 - -9.5°
Exits shadow 06:13:43 12° 308° (NW) 1,737 8.8 -9.4°
Maximum altitude 06:17:19 37° 15° (NNE) 845 7.7 -8.8°
Drops below altitude 10° 06:21:00 10° 84° (E) 1,737 10.5 -8.2°
Sets 06:23:15 0° 93° (E) 2,597 11.9 -7.8°
